This demonstration page uses our WeatherBlox Daily Observations layout. Learn more.

39.29038, -76.61219

Hourly Observations for October 6, 2015

Temp ( °F °C ) Dew Point ( °F °C ) Humidity (%) Winds ( mph kmh ) Pressure ( in mb ) Visibility ( mi km ) Precip ( " mm )
12:54 am 00:54 undefined 58 14.4 49 9.4 72 72 undefined N/A 30.1 1019 N/A 0 0
1:54 am 01:54 undefined 55 12.8 49 9.4 80 80 undefined N/A 30.09 1019 N/A 0 0
2:54 am 02:54 undefined 54 12.2 48 8.9 80 80 undefined N/A 30.08 1019 N/A 0 0
3:54 am 03:54 undefined 53 11.7 48 8.9 83 83 undefined N/A 30.07 1018 N/A 0 0
4:54 am 04:54 undefined 53 11.7 47 8.3 80 80 undefined N/A 30.07 1018 N/A 0 0
5:54 am 05:54 undefined 53 11.7 46 7.8 77 77 undefined N/A 30.07 1018 N/A 0 0
6:54 am 06:54 undefined 53 11.7 47 8.3 80 80 undefined N/A 30.09 1019 N/A 0 0
7:54 am 07:54 undefined 55 12.8 47 8.3 74 74 undefined N/A 30.1 1019 N/A 0 0
8:54 am 08:54 undefined 59 15 47 8.3 64 64 undefined N/A 30.11 1020 N/A 0 0
9:54 am 09:54 undefined 63 17.2 47 8.3 56 56 undefined N/A 30.11 1020 N/A 0 0
10:54 am 10:54 undefined 66 18.9 47 8.3 50 50 undefined N/A 30.09 1019 N/A 0 0
11:54 am 11:54 undefined 68 20 46 7.8 45 45 undefined N/A 30.08 1019 N/A 0 0
12:54 pm 12:54 undefined 70 21.1 48 8.9 46 46 undefined N/A 30.06 1018 N/A 0 0
1:54 pm 13:54 undefined 72 22.2 49 9.4 44 44 undefined N/A 30.04 1017 N/A 0 0
2:54 pm 14:54 undefined 73 22.8 49 9.4 43 43 undefined N/A 30.04 1017 N/A 0 0
3:54 pm 15:54 undefined 74 23.3 47 8.3 38 38 undefined N/A 29.99 1016 N/A 0 0
4:54 pm 16:54 undefined 73 22.8 49 9.4 43 43 undefined N/A 29.99 1016 N/A 0 0
5:54 pm 17:54 undefined 73 22.8 51 10.6 46 46 undefined N/A 29.98 1015 N/A 0 0
6:54 pm 18:54 undefined 72 22.2 53 11.7 52 52 undefined N/A 29.98 1015 N/A 0 0
7:54 pm 19:54 undefined 71 21.7 54 12.2 55 55 undefined N/A 29.98 1015 N/A 0 0
8:54 pm 20:54 undefined 69 20.6 54 12.2 59 59 undefined N/A 29.99 1016 N/A 0 0
9:54 pm 21:54 undefined 67 19.4 55 12.8 66 66 undefined N/A 29.98 1015 N/A 0 0
10:54 pm 22:54 undefined 66 18.9 55 12.8 68 68 undefined N/A 29.99 1016 N/A 0 0
11:54 pm 23:54 undefined 64 17.8 55 12.8 73 73 undefined N/A 29.99 1016 N/A 0 0

Powered by AerisWeather